www.pogodaiklimat.ru

Погода и климат >> Архив погоды >> Индия >> Раджастхан >> Джайпур


ПОГОДА в Джайпуре

  • Прогноз погоды в Джайпуре
  • Монитор погоды в Джайпуре

АРХИВ ПОГОДЫ в Джайпуре

Время (UTC), дата Ветер
(напр.,м/с)
 
Видим.   Явления Облачность Т
(С)
Тd
(С)
f
(%)
Тe
(С)
Тes
(С)
Комфортность P
(гПа)
Po
(гПа)
Тmin
(С)
Tmax
(С)
R
(мм)
R24
(мм)
S
(см)
15 9.06 С 2 2000 м мгла 3/3 1050 м
[Sc]
+40.4 +7.0 13 +38 +38 очень
жарко
996.3 954.8
18 9.06 штиль 0 2000 м мгла 4/4 1050 м
[Sc]
+36.6 +11.0 21 +36 +36 очень
жарко
997.0 955.0
21 9.06 штиль 0 2000 м мгла 3/3 1050 м
[Sc]
+36.0 +8.1 18 +34 +34 очень
жарко
996.8 954.7
00 10.06 З 2 2000 м мгла 3/0
[Ac trans]
+35.0 +9.2 21 +34 +34 очень
жарко
997.7 955.5
03 10.06 СЗ 5 2000 м мгла ясно +37.0 +11.7 22 +36 +40 очень
жарко
998.3 956.3 +33.6 +45.8
06 10.06 СЗ 3 4000 м мгла ясно +43.6 +9.3 13 +42 +61 опасность
перегрева
996.6 955.5
09 10.06 СЗ 3 4000 м мгла 8/8 900 м
[Sc diur, vesp]
+45.2 +2.8 8 +42 +45 опасность
перегрева
994.3 953.5
12 10.06 СЗ 3 4000 м мгла 5/5 1050 м
[Sc]
+45.0 +4.0 8 +42 +43 опасность
перегрева
992.0 951.3 +46.3
15 10.06 З 3 2000 м мгла 8/4 900 м
[Cb calv Ac trans]
+41.4 +7.8 13 +39 +39 очень
жарко
994.3 953.0
18 10.06 ЮЗ 4 2000 м мгла 5/3 1050 м
[Sc Ac trans]
+39.0 +7.3 15 +37 +37 очень
жарко
996.4 954.8
21 10.06 З 5 2000 м мгла 6/4 1050 м
[Sc Ac trans]
+35.8 +9.5 20
00 11.06 СЗ 3 2000 м мгла 8/4 1050 м
[Sc Ac trans]
+34.2 +10.5 24 +34 +34 очень
жарко
996.6 954.3
03 11.06 З 4 4000 м мгла 6/5 1050 м
[Cu Sc Ac trans]
+36.0 +15.8 30 +38 +40 очень
душно
998.5 956.4 +33.5 +46.3
06 11.06 З 4 4000 м мгла 5/5 1050 м
[Sc diur, vesp]
+40.2 +14.6 22 +41 +48 опасность
перегрева
997.1 955.6
09 11.06 СЗ 3 4000 м мгла 5/5 1050 м
[Sc diur, vesp]
+43.4 +11.9 16 +43 +51 опасность
перегрева
995.1 954.1
12 11.06 СВ 3 2000 м мгла {гроза, дождь} 8/8 900 м
[Cb calv]
+36.0 +19.1 37 +41 +41 опасность
перегрева
995.4 953.4 +43.8 2
15 11.06 нст 1 2000 м мгла 6/4 1050 м
[Sc Ac trans]
+35.2 +14.6 29 +36 +36 очень
жарко
996.4 954.2 2
18 11.06 штиль 0 2000 м мгла 3/0
[Ac trans]
+34.6 +15.5 32 +37 +37 очень
душно
997.4 955.1 2
21 11.06 нст 1 2000 м мгла ясно +32.4 +17.8 42 +37 +37 очень
душно
997.1 954.5
00 12.06 штиль 0 2000 м мгла 3/0
[Ac trans]
+32.4 +18.2 43 +37 +37 очень
душно
996.5 954.0 2
03 12.06 ЮЗ 2 2000 м мгла ясно +37.0 +16.4 30 +39 +47 очень
душно
998.8 956.8 +29.7 +43.8 2
06 12.06 С 2 2000 м мгла 6/4 1050 м
[Sc Ac trans]
+40.6 +14.7 22 +41 +51 опасность
перегрева
998.2 956.7
09 12.06 ЮВ 2 4000 м мгла 8/4 1050 м
[Sc Ac trans]
+42.4 +13.1 18 +42 +48 опасность
перегрева
995.9 954.7
12 12.06 С 5 1000 м слаб. морось {гроза, дождь} 10/5 900 м
[Cb calv Ac und]
+29.0 +23.5 72 +39 +40 очень
душно
998.7 955.6 +42.8 3
15 12.06 В 6 2000 м мгла 9/4 900 м
[Sc Ac trans]
+30.2 +19.5 53 +36 +36 очень
душно
998.3 955.4 3
18 12.06 В 4 2000 м мгла 9/4 900 м
[Cb calv Ac trans]
+29.4 +19.3 55 +35 +35 очень
душно
1000.1 957.0 3
21 12.06 нст 2 2000 м мгла 9/4 900 м
[Cb calv Ac trans]
+29.0 +19.2 55 +34 +34 очень
душно
1000.1 956.9 3
00 13.06 Ю 3 2000 м мгла 9/4 900 м
[Sc Ac trans]
+28.6 +20.4 61 +35 +35 очень
душно
1000.5 957.3 3
03 13.06 Ю 3 1000 м мгла 8/4 900 м
[Sc Ac trans]
+29.8 +20.1 56 +36 +39 очень
душно
1002.4 959.3 +28.2 +42.8 3
06 13.06 ЮЗ 5 2000 м мгла 9/4 900 м
[Sc Ac trans]
+33.0 +20.1 47 +39 +43 очень
душно
1002.0 959.3
09 13.06 З 3 4000 м мгла 9/9 900 м
[]
+34.8 +17.5 36 +38 +40 очень
душно
1000.8 958.4
12 13.06 З 2 2000 м слаб. морось 10/6 900 м
[Sc As op]
+33.2 +19.8 45 +39 +39 очень
душно
998.6 956.1 +36.3 0.0
15 13.06 ЮЗ 3 2000 м мгла 9/5 900 м
[Sc Ac trans]
+31.6 +19.4 48 +37 +37 очень
душно
999.5 956.7 0.0
18 13.06 З 2 2000 м мгла 9/5 900 м
[Sc Ac trans]
+31.6 +17.9 44 +36 +36 очень
душно
1000.6 957.8 0.0
21 13.06 ЮЗ 2 2000 м мгла 6/4 900 м
[Sc Ac trans]
+29.6 +20.2 57 +36 +36 очень
душно
1000.5 957.4 0.0
00 14.06 З 1 2000 м мгла 6/4 900 м
[Sc Ac trans]
+29.2 +21.1 62 +37 +37 очень
душно
1000.7 957.5 0.0
03 14.06 З 3 2000 м мгла 8/4 1050 м
[Sc Ac trans]
+32.6 +19.6 46 +38 +41 очень
душно
1001.0 958.3 +28.5 +36.3 0.0
06 14.06 З 3 2000 м мгла 6/3 1050 м
[Sc Ac trans]
+36.6 +19.1 36 +41 +50 опасность
перегрева
1000.0 957.9
09 14.06 З 3 4000 м мгла 6/3 1050 м
[Sc Ac trans]
+39.4 +19.1 31 +44 +51 опасность
перегрева
998.0 956.3
12 14.06 З 5 2000 м мгла 8/8 900 м
[Cb calv]
+37.2 +16.7 30 +40 +40 очень
душно
996.6 954.7 +40.8
15 14.06 З 2 2000 м мгла 9/4 900 м
[Sc Ac trans]
+35.6 +17.4 34 +39 +39 очень
душно
997.3 955.2
18 14.06 З 3 2000 м мгла 5/0
[Ac trans]
+35.4 +17.9 36 +39 +39 очень
душно
998.9 956.7
21 14.06 СЗ 2 2000 м мгла 8/8 1050 м
[]
+33.6 +19.1 42 +39 +39 очень
душно
998.6 956.1
00 15.06 З 3 2000 м мгла 8/3 1050 м
[Sc Ac trans]
+32.0 +20.3 50 +39 +39 очень
душно
999.1 956.4
03 15.06 З 4 2000 м мгла 8/5 1050 м
[Sc Ac trans]
+32.8 +20.6 49 +40 +42 очень
душно
1001.3 958.6 +31.4 +40.8
06 15.06 З 5 2000 м мгла 9/5 1050 м
[Sc Ac trans]
+34.0 +21.0 47 +41 +44 опасность
перегрева
1001.5 959.0
09 15.06 З 4 15 км мгла 8/5 1050 м
[Sc Ac trans]
+38.2 +19.0 33 +43 +46 опасность
перегрева
998.6 956.8
12 15.06 Ю 4 2000 м в посл. час гроза {ливн. осадки, морось} 6/4 1050 м
[Sc Ac trans]
+32.8 +22.6 55 +42 +43 опасность
перегрева
998.4 955.8 +39.0 7
15 15.06 З 3 2000 м мгла 8/4 1050 м
[Sc Ac trans]
+33.4 +19.5 44 +39 +39 очень
душно
998.8 956.3 7
18 15.06 З 3 2000 м мгла 8/4 1050 м
[Sc Ac trans]
+31.6 +19.1 48 +37 +37 очень
душно
1000.5 957.7 7
21 15.06 З 3 2000 м мгла 8/4 1050 м
[Sc Ac trans]
+31.0 +20.8 55 +38 +38 очень
душно
1000.2 957.3 7
00 16.06 З 2 2000 м мгла 6/4 1050 м
[Sc Ac trans]
+30.2 +22.6 64 +40 +40 очень
душно
1000.2 957.2 7
03 16.06 З 5 2000 м мгла 5/4 1050 м
[Sc Ac trans]
+31.4 +23.9 64 +43 +45 опасность
перегрева
1002.1 959.2 +29.6 +39.0 7
06 16.06 З 7 2000 м мгла 8/8 900 м
[Cb calv]
+34.4 +22.5 50 +44 +45 опасность
перегрева
1001.2 958.7
09 16.06 З 3 2000 м мгла {гроза, дождь} 9/5 900 м
[Cb calv Ac trans]
+28.0 +24.3 80 +39 +43 очень
душно
1002.8 959.4 9
12 16.06 СЗ 3 2000 м мгла {гроза, дождь} 8/4 900 м
[Sc Ac trans]
+30.0 +23.0 66 +40 +41 очень
душно
1000.8 957.8 +35.0 9

 

Местоположение метеостанции Джайпур (Раджастхан, Индия): широта 26.82 долгота 75.80 высота над уровнем моря 390 м.

В архиве по умолчанию представлена погода в Джайпуре за последнюю неделю. Архивные данные за месяц целиком и за предыдущие месяцы, начиная с января 2011 года, Вы можете получить, выбрав интересующий диапазон дат из раскрывающегося списка и нажав кнопку "Ввод!".


*Определитесь, кто Вы:
робот инопланетянин человек

Внимание! Время в таблицах - всемирное. Для получения местного времени необходимо прибавить поправку, которая равна 5.5 ч.

Смотрите также архив погоды в соседних городах и на ближайших метеорологических станциях:

Погода в Аджмере (Раджастхан, Индия) (124 км)
Погода в Шеопуре (Мадхья-Прадеш, Индия) (155 км)
Погода в Пилани (Раджастхан, Индия) (169 км)
Погода в Чуру (Раджастхан, Индия) (181 км)
Погода в Коте (Раджастхан, Индия) (186 км)
Погода в Бхилваре (Раджастхан, Индия) (201 км)
Погода в Агре (Уттар-Прадеш, Индия) (218 км)
Погода в Нью-Дели Айя Нагар (округ Дели, Индия) (226 км)
Погода в Нью-Дели аэропорт (округ Дели, Индия) (234 км)
Погода в Рохтаке (Харьяна, Индия) (236 км)

Пояснения к столбцам:

Ветер - указаны скорость ветра в м/с - средняя за 10 мин, порывы в срок и между сроками (в фигурных скобках) и направление, откуда дует ветер: С - северный, СВ - северо-восточный, В - восточный, ЮВ - юго-восточный, Ю - южный, ЮЗ - юго-западный, З - западный, СЗ - северо-западный.
Видимость - горизонтальная дальность видимости в метрах или километрах. При видимости от 1 до 10 км при отсутствии осадков обычно наблюдается дымка, при ухудшении видимости до 1 км и менее - туман. В сухую погоду видимость может ухудшаться дымом, пылью или мглою.
Явления - указаны атмосферные явления, наблюдавшиеся в срок или в последний час перед сроком; фигурными скобками обозначены явления, наблюдавшиеся между сроками (за 1-3 часа до срока); квадратными скобками обозначены град или гололедные отложения с указанием их диаметра в мм.
Облачность - указаны через наклонную черту общая и нижняя облачность в баллах и высота нижней границы облаков в метрах; квадратными скобками обозначены формы облаков: Ci - перистые, Cs - перисто-слоистые, Cc - перисто-кучевые, Ac - высококучевые, As - высокослоистые, Sc - слоисто-кучевые, Ns - слоисто-дождевые, Cu - кучевые, Cb - кучево-дождевые. Подробнее классификацию облаков см. в Атласе облаков (PDF).
T - Температура воздуха - температура, измеренная на высоте 2 м над землей.
Td - Температура точки росы - температура, при понижении до которой содержащийся в воздухе водяной пар достигнет насыщения.
f - Относительная влажность воздуха - влажноcть воздуха, измеренная на высоте 2 м над землей.
Te - Эффективная температура - температура, которую ощущает одетый по сезону человек в тени. Характеристика душности погоды. При расчете учитывается влияние влажности воздуха и скорости ветра на теплоощущения человека.
Tes - Эффективная температура на солнце - температура, которую ощущает человек, с поправкой на солнечный нагрев. Характеристика знойности погоды. Зависит от высоты солнца над горизонтом, облачности и скорости ветра. Ночью, в пасмурную погоду, а также при ветре 12 м/с и более поправка равна нулю.
P - Атмосферное давление - приведенное к уровню моря атмосферное давление.
Po - Атмосферное давление - измеренное на уровне метеостанции атмосферное давление.
Tmin - Минимальная температура - минимум температуры воздуха на высоте 2 м над землей.
Tmax - Максимальная температура - максимум температуры воздуха на высоте 2 м над землей.
R - Количество осадков - Количество выпавших осадков за период времени, мм. При наведении курсора мыши на число - период времени, за который выпало указанное количество осадков.
R24 - Количество осадков - Количество выпавших осадков за 24 часа, мм.
S - Снежный покров - Высота снежного покрова, см. При наведении курсора мыши на число - состояние снежного покрова и степень покрытия местности в баллах.